Aérodrome :
LOGIN :

S'inscrire | Disclaimer

   EN    FR    IT 

 










Légende :    VFR   VFR Marginal   IFR   IFR Intensif   IFR Très Intensif
Visi : 
Plafond : 
>= 8 km
>= 3000ft
5 à 8 km
1000 à 3000 ft
1500m à 5 km
500 à 1000 ft
800 à 1500m
200 à 500 ft
< 800m
< 200 ft
Symboles :   Orages  Brouillard  Fortes neiges  Fortes précipitations  Vent > 20 kt
SIGMETs :   Divers  Orages  Givrage  Turbulence  Onde Orograph.  Cendres Volcan.






- Altitude de l'aérodrome : 48 ft
- Code IATA : PSR


LIBP - Abruzzo Pescara

DERNIER METAR :
  • 260250Z AUTO 24005KT 9999 BKN120/// 11/06 Q1026

METARs EXPIRÉS :
  • 260220Z AUTO 23007KT 9999 SCT110/// 11/06 Q1026
  • 260150Z AUTO 22005KT 9999 BKN130/// 10/06 Q1026
  • 260120Z AUTO 23005KT 9999 SCT130/// 11/06 Q1026
  • 260050Z AUTO 25003KT 230V360 9999 SCT110/// 11/06 Q1026
  • 260020Z AUTO 20003KT 9999 NCD 11/06 Q1025

TAF TAF LIBP
Valide du 26 à 00h jusqu'au 27 à 00h UTC


252300Z 2600/2624 VRB05KT 9999 SCT040
BECMG 2608/2610 01012KT
BECMG 2618/2620 VRB05KT



MET'MAP, la Météo Aéronautique d'un coup d'oeil ! - Copyright ORBIFLY Décembre 2007 - Disclaimer

ORBIFLY MET'MAP TEAM :

Programmation & Développement : Alexandra Zaïnal
Sur une idée originale de : Baudouin d'Aumeries
Assistance à la programmation : Marc-Olivier Méhu
Soutien technique & logistique : Manuel Goepfert

Contact : metmap@orbifly.com




SOURCES & CREDITS :

   NOAA